Regional Weather Roundup
Issued by NWS

Home | Current Version | Previous Version | Text Only | Print | Product List | Glossary Off
Versions: 1 2 3 4 5 6 7 8 9 10 11 12 13 14 15 16 17 18 19 20 21 22 23 24 25 26 27 28 29 30 31 32 33 34 35 36 37 38 39 40 41 42 43 44 45 46 47 48 49 50

381
ASUS44 KLIX 260210
RWRLA
LOUISIANA WEATHER ROUNDUP
NATIONAL WEATHER SERVICE NEW ORLEANS LA
800 PM CST SUN JAN 25 2015

NOTE: "FAIR" INDICATES FEW OR NO CLOUDS BELOW 12,000 FEET WITH NO
      SIGNIFICANT WEATHER AND/OR OBSTRUCTIONS TO VISIBILITY.
      SKY/WX - SKY CONDITION AND SIGNIFICANT WEATHER.
      TMP - AIR TEMPERATURE.    DP   - DEWPOINT TEMPERATURE.
      RH  - RELATIVE HUMIDITY.  PRES - PRESSURE.
      HX  - HEAT INDEX.         WCI  - WIND CHILL INDEX.

*  THESE STATIONS ARE NOT NWS OR FAA STATIONS AND ARE NOT UNDER
   NWS QUALITY CONTROL.

LAZ040-048-061>063-065-066-069-260300-
SOUTHEAST LOUISIANA

CITY           SKY/WX    TMP DP  RH WIND       PRES   REMARKS
N.O. AUDUBON     N/A     58  45  62 MISG        N/A
N.O. INTL ARPT CLEAR     57  43  59 W15       29.92R
N.O. LAKEFRONT CLEAR     58  45  62 W20       29.91S
N.O. DOWNTOWN* FAIR      57  39  51 SW5       29.93R
SLIDELL        CLEAR     58  41  53 VRB7      29.90R
BATON ROUGE    CLEAR     53  43  68 W6        29.93R
BOOTHVILLE     CLEAR     61  48  62 W21       29.94R
BELLE CHASSE   CLEAR     55  43  63 W8        29.92R
BOGALUSA*        N/A     56  40  56 NW6       29.90R
GALLIANO*      CLEAR     58  49  72 MISG      29.96R
NEW ROADS*     FAIR      56  41  56 W8        29.94R
GONZALES*      FAIR      56  45  64 SW5       29.94R
HAMMOND*       CLEAR     57  39  51 W8        29.92R
HOUMA*         CLEAR     54  48  82 W8        29.95R
PORT FOURCHON* CLEAR     59  50  72 W16G26    30.00R

$$

LAZ041-044-053-054-260300-
SOUTHWEST LOUISIANA

CITY           SKY/WX    TMP DP  RH WIND       PRES   REMARKS
LAKE CHARLES   CLEAR     62  32  32 NW15G26   30.00R
LAFAYETTE      CLEAR     54  47  77 W8        29.97R
PATTERSON      CLEAR     54  45  71 W13G18    29.98R
SALT POINT       N/A     55  50  83 W9        29.97R
NEW IBERIA     CLEAR     55  47  74 W9        29.97R
CHENAULT AIRPK CLEAR     59  37  44 NW9       30.01

$$

LAZ027-028-260300-
CENTRAL LOUISIANA

CITY           SKY/WX    TMP DP  RH WIND       PRES   REMARKS
FORT POLK      CLEAR     56  30  37 NW10      30.01R
ALEXANDRIA INT CLEAR     56  32  40 NW12      29.97R
ALEXANDRIA     CLEAR     59  30  33 NW10G22   29.98R

$$

LAZ001-002-260300-
NORTHWEST LOUISIANA

CITY           SKY/WX    TMP DP  RH WIND       PRES   REMARKS
SHREVEPORT     CLEAR     53  31  42 NW9       30.02R
BARKSDALE AFB  CLEAR     51  30  44 N9        30.02R
DTN SHREVEPORT CLEAR     55  28  35 NW8       30.02R

$$

LAZ014-016-260300-
NORTHEAST LOUISIANA

CITY           SKY/WX    TMP DP  RH WIND       PRES   REMARKS
MONROE         CLEAR     55  35  47 NW12      29.96R
TALLULAH       CLOUDY    57  36  45 NW9G18    29.92R

$$




USA.gov is the U.S. government's official web portal to all federal, state and local government web resources and services.